{"data":{"norad_id":67360,"intl_designator":"2026-003AC","name":"STARLINK-36469","alt_names":[],"object_type":"PAYLOAD","status":"ACTIVE","operator":null,"country":"US","launch_date":"2026-01-09","launch_site_code":"AFETR","launch_vehicle":null,"mission":null,"orbit_class":"UNKNOWN","rcs_meters":null,"size_class":null,"mass_kg":null,"dimensions":null,"purposes":["comms"],"wikipedia_slug":null,"has_3d_model":false,"image_url":null,"decayed_at":null,"tle_current":{"epoch":"2026-05-24T18:14:57.440256Z","epoch_age_seconds":92185,"freshness":"FRESH","line1":"1 67360U 26003AC  26144.76038704  .00010982  00000+0  40784-3 0  9990","line2":"2 67360  43.0023 157.8361 0003345 278.6794  81.3678 15.27592489 20451","mean_motion":15.27592489,"eccentricity":0.0003345,"inclination_deg":43.0023,"raan_deg":157.8361,"arg_perigee_deg":278.6794,"mean_anomaly_deg":81.3678,"bstar":0.00040784,"rev_number":2045,"period_min":94.265978025505,"perigee_km":480.71664549548,"apogee_km":485.3067539756,"semimajor_km":6861.1486997355,"source":"CELESTRAK","updated_at":"2026-05-25T13:38:21.549833Z"}}}